{"data":{"norad_id":49060,"epoch":"2026-05-25T04:47:47.842656Z","epoch_age_seconds":54406,"freshness":"FRESH","line1":"1 49060U 21070B   26145.19985929  .00000109  00000+0  71623-4 0  9991","line2":"2 49060  89.0055 220.9655 0005016 164.3002 195.8331 13.94716450244768","mean_motion":13.9471645,"eccentricity":0.0005016,"inclination_deg":89.0055,"raan_deg":220.9655,"arg_perigee_deg":164.3002,"mean_anomaly_deg":195.8331,"bstar":7.1623e-5,"rev_number":24476,"period_min":103.2467925649,"perigee_km":908.49207550958,"apogee_km":915.80569030732,"semimajor_km":7290.2858829084,"source":"CELESTRAK","updated_at":"2026-05-25T13:37:57.052830Z"}}